TimeEDT,TemperatureF,Dew PointF,Humidity,Sea Level PressureIn,VisibilityMPH,Wind Direction,Wind SpeedMPH,Gust SpeedMPH,PrecipitationIn,Events,Conditions,WindDirDegrees,DateUTC
12:53 AM,62.1,55.9,80,30.35,10.0,Calm,Calm,-,N/A,,Clear,0,2013-08-25 04:53:00
1:53 AM,60.1,55.9,86,30.34,10.0,Calm,Calm,-,N/A,,Clear,0,2013-08-25 05:53:00
2:53 AM,60.1,55.9,86,30.33,10.0,Calm,Calm,-,N/A,,Clear,0,2013-08-25 06:53:00
3:53 AM,60.1,55.9,86,30.33,10.0,Calm,Calm,-,N/A,,Clear,0,2013-08-25 07:53:00
4:53 AM,57.9,55.0,90,30.35,10.0,Calm,Calm,-,N/A,,Clear,0,2013-08-25 08:53:00
5:53 AM,59.0,55.0,87,30.36,10.0,Calm,Calm,-,N/A,,Clear,0,2013-08-25 09:53:00
6:53 AM,60.1,57.0,90,30.38,10.0,Calm,Calm,-,N/A,,Clear,0,2013-08-25 10:53:00
7:53 AM,64.9,60.1,84,30.40,10.0,Calm,Calm,-,N/A,,Clear,0,2013-08-25 11:53:00
8:53 AM,71.1,57.0,61,30.38,10.0,NW,5.8,-,N/A,,Clear,310,2013-08-25 12:53:00
9:53 AM,73.9,55.0,52,30.39,10.0,WNW,4.6,-,N/A,,Clear,300,2013-08-25 13:53:00
10:53 AM,77.0,52.0,42,30.38,10.0,NW,6.9,-,N/A,,Clear,310,2013-08-25 14:53:00
11:53 AM,79.0,48.9,35,30.36,10.0,NW,5.8,-,N/A,,Clear,320,2013-08-25 15:53:00
12:53 PM,81.0,48.9,33,30.34,10.0,Variable,5.8,-,N/A,,Clear,0,2013-08-25 16:53:00
1:53 PM,81.0,54.0,39,30.33,10.0,SW,10.4,17.3,N/A,,Clear,230,2013-08-25 17:53:00
2:53 PM,81.0,51.1,35,30.32,10.0,SSW,17.3,21.9,N/A,,Clear,210,2013-08-25 18:53:00
3:53 PM,80.1,51.1,36,30.31,10.0,SSW,15.0,21.9,N/A,,Clear,200,2013-08-25 19:53:00
4:53 PM,80.1,52.0,38,30.29,10.0,SSW,12.7,-,N/A,,Clear,210,2013-08-25 20:53:00
5:53 PM,78.1,54.0,43,30.27,10.0,SW,13.8,-,N/A,,Clear,230,2013-08-25 21:53:00
6:53 PM,73.9,55.0,52,30.25,10.0,SW,13.8,-,N/A,,Clear,220,2013-08-25 22:53:00
7:53 PM,72.0,55.0,55,30.25,10.0,SW,10.4,-,N/A,,Clear,230,2013-08-25 23:53:00
8:53 PM,71.1,55.0,57,30.26,10.0,SW,11.5,-,N/A,,Clear,230,2013-08-26 00:53:00
9:53 PM,71.1,55.0,57,30.26,10.0,SW,13.8,-,N/A,,Clear,220,2013-08-26 01:53:00
10:53 PM,70.0,55.9,61,30.26,10.0,SW,11.5,-,N/A,,Clear,230,2013-08-26 02:53:00
11:53 PM,70.0,57.0,63,30.24,10.0,SW,9.2,-,N/A,,Clear,220,2013-08-26 03:53:00